Location: LDNL
(36.4545°S, 141.6685°E)
Time: 11:59:24
(UTC+10:00)

Vanguard 3 - Pass Details

Date: 29 January 2022
Orbit: 508 x 3258 km, 33.3° (Epoch: 25 May)

Event Time Altitude Azimuth Distance (km) Brightness Sun altitude
Rises 08:03:40 0° 260° (W) 6,372 11.1 14.0°
Reaches altitude 10° 08:08:26 10° 270° (W) 5,673 10.9 14.9°
Maximum altitude 08:22:31 29° 320° (NW) 4,769 10.8 17.7°
Drops below altitude 10° 08:37:31 10° 10° (N) 5,973 11.7 20.7°
Sets 08:42:52 0° 21° (NNE) 6,739 12.0 21.7°
